DELTA 1 DEB, 7014

Orbit data source: Space-Track

DELTA 1 DEB, 7014 is space debris in SSO originally from a launch on Tue, 06 Nov 1973 UTC launched from the Air Force Western Test Range (AFWTR). Debris objects in space refer to the collection of defunct objects orbiting the Earth. Examples of debris include non-operational satellites, rocket bodies, and fragments generated from explosions, collisions, or faulty payload assembly.

Loading next visibility...
Identifier
7014, 1973-086E
Orbit
SSO
Country
Flag of USUS
Related business
Manufacturer
Unknown
Mission
Spacecraft
Bus & Motor
Unknown
Mass
Unknown
Launch date (UTC)
1973-11-06 (53 years ago)
Launch vehicle
Unknown
Launch site
Air Force Western Test Range (AFWTR)
Object type
Payload
Rocket body
Debris
Shape & HBR
Unknown shape, 0.2 m
Radar Cross Section
Medium (>0.1 m² and <1 m²)

Expand to show TLE details & history
Last TLE update: 23 hours ago

TLE from 23 hours ago
0 DELTA 1 DEB
1 07014U 73086E   26206.44006090  .00000093  00000-0  22773-3 0  9991
2 07014 101.6918 279.4356 0403494 200.2972 158.1695 13.23257114541321
Epoch: 2026-07-25T10:33Z
TLE epoch observation values (Epoch: 2026-07-25T10:33:41.261Z)
Latitude
0.00001°
Longitude
177.86136°
Altitude
1,459.447 km
Speed
6.997 km/s
True Right ascension
18h 37m 44s
True Declination
0° 00' 00"
Sunlit
Object was in full shadow at epoch
Visualization orbit readout
Latitude
Unknown
Longitude
Unknown
Altitude
Unknown
Speed
Unknown
Apparent Right ascension
Unknown
Apparent Declination
Unknown
Sunlit
N/A
Visualization observer readout
Local Sidereal Time
22:21:30
Azimuth
Unknown
Elevation
Unknown
Doppler factor
Unknown
Orbital elements
Apogee altitude
1,474.299 km
Perigee altitude
865.194 km
Semi-major axis
7,547.883 km
Eccentricity
0.04035
Inclination
101.6918°
RAAN
279.4356°
Arg. of periapsis
200.2972°
True anomaly
159.81163°
Mean anomaly
158.1695°
Eccentric anomaly
158.99807°
Mean motion
3.30983 °/min
Orbital period
108.77 mins
BSTAR
0.00022773
Loading maneuver chart data...
Computing Atmospheric mass density...
Loading historical data...
Loading historical data...
Loading historical data...
Loading historical data...
Loading historical data...
Loading historical data...
Loading historical data...

Documentation

Showing up to 5 results
|